User: anonymous   Login
Location: *
(50.0228°S, 177.2688°W)
Time: 17:59:41
(UTC+00:00)
Language:

Cosmos 1340 Rocket - Orbit

View from above orbital plane
View from above orbital plane
View from above satellite
View from above satellite

Ground track
Ground track

The orbit data is extracted from the following two-line orbital elements,

1 13068U 82013B   20184.89202497 -.00000350 +00000-0 -24541-4 0  9998
2 13068 081.2025 032.7695 0020469 241.9758 117.9396 15.07442440090698
Epoch (UTC): 02 July 2020 21:24:30
Eccentricity: 0.0020469
inclination: 81.2025°
perigee height: 530 km
apogee height: 558 km
right ascension of ascending node: 32.7695°
argument of perigee: 241.9758°
revolutions per day: 15.07442440
mean anomaly at epoch: 117.9396°
orbit number at epoch: 9069

The dashed part of the orbit path shows where the satellite is in the earth's shadow,  

DLR